7 * 24
多渠道服务支持
SKYCRAFT 4E是澳大利亚天空飞行器公司(Skykraft)于2025年7月23日由SpaceX猎鹰9号火箭从美国发射升空的通信试验卫星,属于Skykraft 4五卫星集群的组成部分。该卫星主要用于测试ADS-B空中交通通信技术,发射后随集群一起部署入轨,按计划于一周后完成星间分离,目前已成功进入预定近地轨道开展在轨测试任务。
澳大利亚
(AU)
| 数据来源 | 国际轨道数据 |
| 星历时间: | 2026-09-11T11:11:23+0800 16小时前 查看轨道信息 |
| 半长轴: | 6948.596km |
| 偏心率: | 0.0004117 |
| 轨道倾角: | 97.663° |
| 近地点辐角 | 3.731° |
| 升交点赤经 | 317.432° |
| 平近点角 | 356.394° |
| 近地点: | 567.598km |
| 远地点: | 573.32km |
| 周期: | 96.074分钟 |
| 每日圈数: | 14.988466 |